Location: Unspecified
(0.0000°N, 0.0000°E)
Time: 04:01:07
(UTC+00:00)

Vanguard 3 - Pass Details

Date: 15 April 2021
Orbit: 507 x 3262 km, 33.4° (Epoch: 17 May)

Event Time Altitude Azimuth Distance (km) Brightness Sun altitude
Rises 19:13:58 0° 222° (SW) 7,076 12.4 -18.2°
Reaches altitude 10° 19:20:46 10° 210° (SSW) 5,753 11.7 -19.9°
Maximum altitude 19:32:46 24° 164° (SSE) 3,855 10.3 -22.8°
Enters shadow 19:36:28 21° 141° (SE) 3,690 10.0 -23.7°
